Flag for Argentina Weather past 2 weeks in Mendoza, Mendoza, Argentina

Now
43 °F

Clear.


Feels Like: 43 °F
Forecast: 40 / 63 °F
Wind: No wind

Location: Mendoza Aerodrome

Current Time: Aug 4, 2015 at 5:29:55 AM

Latest Report: Aug 4, 2015 at 5:00 AM


Visibility: 10 mi

Pressure: 29.98 "Hg (27.29 "Hg at 767m altitude)

Humidity: 76%

Dew point: 36 °F

Location of MendozaLocation

Historic Weather in Mendoza — Graph

°F

Mendoza temperature yesterday

Maximum temperature yesterday: 64 °F (at 3:00 PM)
Minimum temperature yesterday: 45 °F (at 8:00 AM)
Average temperature yesterday: 55 °F

Past Weeks' High & Low Weather Summary

 TemperatureHumidityPressure
High68 °F (Jul 26, 5:00 PM)93% (Jul 23, 7:00 AM)30.42 "Hg (Jul 23, 7:00 AM)
Low32 °F (Jul 21, 8:00 AM)21% (Jul 24, 5:00 PM)29.62 "Hg (Jul 27, 3:00 PM)
Average52 °F52%29.98 "Hg
* Reported Jul 20 4:00 AM — Aug 4 4:00 AM, Mendoza, Weather by CustomWeather, © 2015

Note: Actual official high and low records may vary slightly from our data, if they occured in-between our weather recording intervals... More about our weather records

Advertising

Mendoza weather history for previous 24 hours

 ConditionsComfort  
Time TempWeatherWind HumidityBarometerVisibility
4:00 AM
Tue, Aug 4
43 °FClear.No wind81%29.98 "Hg10 mi
3:00 AM43 °FClear.No wind81%29.98 "Hg10 mi
2:00 AM45 °FClear.No wind81%30.01 "Hg10 mi
1:00 AM45 °FClear.No wind81%30.01 "Hg10 mi
12:00 AM46 °FClear.No wind76%30.01 "Hg10 mi
11:00 PM
Mon, Aug 3
50 °FClear.No wind71%30.01 "Hg10 mi
10:00 PM50 °FClear.No wind76%30.04 "Hg10 mi
9:00 PM52 °FClear.2 mph67%30.04 "Hg10 mi
8:00 PM54 °FClear.3 mph58%30.01 "Hg10 mi
7:00 PM57 °FClear.6 mph48%29.98 "Hg10 mi
6:00 PM61 °FClear.7 mph36%29.98 "Hg10 mi
5:00 PM64 °FSunny.7 mph30%29.98 "Hg10 mi
4:00 PM64 °FSunny.9 mph30%29.98 "Hg10 mi
3:00 PM64 °FSunny.9 mph28%30.01 "Hg10 mi
2:00 PM63 °FSunny.6 mph30%30.04 "Hg10 mi
1:00 PM61 °FClear.8 mph31%30.04 "Hg5 mi
12:00 PM59 °FClear.7 mph34%30.07 "Hg3 mi
11:00 AM55 °FClear.No wind41%30.07 "Hg5 mi
10:00 AM50 °FClear.No wind54%30.04 "Hg6 mi
9:00 AM45 °FSunny.5 mph53%30.01 "Hg10 mi
8:00 AM45 °FSunny.No wind61%29.98 "Hg10 mi
7:00 AM50 °FClear.No wind47%29.98 "Hg10 mi
6:00 AM52 °FClear.3 mph44%29.95 "Hg10 mi
5:00 AM52 °FClear.5 mph44%29.95 "Hg10 mi
Weather by CustomWeather, © 2015

See weather overviewHow to use our weather pages